Location: Julian California
(33.0790°N, 116.6010°W)
Time: 00:42:18
(UTC-07:00)

NOSS 3-1 (C) - Pass Details

Date: 14 June 2018
Orbit: 803 x 1406 km, 63.4° (Epoch: 10 July)

Event Time Altitude Azimuth Distance (km) Brightness Sun altitude
Rises 20:31:39 0° 212° (SSW) 3,304 6.3 -7.1°
Reaches altitude 10° 20:33:59 10° 213° (SSW) 2,398 5.6 -7.5°
Maximum altitude 20:39:28 79° 300° (WNW) 880 3.5 -8.5°
Drops below altitude 10° 20:45:35 10° 28° (NNE) 2,667 5.9 -9.5°
Sets 20:48:18 0° 30° (NNE) 3,703 6.6 -10.0°
